Погода Свободный

Хотите узнать прогноз погоды Свободный? Тогда Вам сюда: Погода Свободный

Поиск расширенной информации на нашем сайте:

Полезная информация:

Новости сайта



02.01.2020
Опубликован Долгосрочный прогноз погоды по городам России и ближнего зарубежья на январь 2020 года.
Карты: Прогноз на январь и февраль 2020 года, Сравнение прогнозируемой аномалии приземной температуры воздуха на январь 2020 года по разным моделям.




Погода Свободный - сегодня

Время (UTC), дата Ветер
(°,м/с) 
Видим.   Явления Облачность Т
(°С)
Тd
(°С)
f(%) Тe
(°С)
Pmin
(гПа)
dP
(гПа)
Po
(мм)
O2
(г/м3)
Тmin Tmax R s Состояние
почвы
21 29.11.20 290 (З) 50000 м    10/0 верхняя 
[Ci fib]
-17.6 -21.7 70 -22  1024.7  -0.2  748  324           
00 30.11.20 290 (З) 20000 м    10/0 средняя, верхняя 
[Ac trans|Ci fib]
-18.7 -22.6 71 -23  1025.6  0.8  749  326  -19      равномерный
сухой снег
100% 
03 30.11.20 280 (З) 20000 м    8/0 верхняя 
[Cc]
-16.2 -21.4 64 -20  1025.6  0.2  749  322           
06 30.11.20 300 (СЗ) 20000 м    ясно 
-12.7 -21.5 48 -17  1025.8  0.6  749  318           
09 30.11.20 280 (З) 50000 м    ясно 
-16.7 -23 58 -19  1027.7  1.4  751  324           
12 30.11.20 тихо ()   50000 м    ясно 
-18.8 -23.9 64 -19  1028.5  0.5  751  327    -12.1       
15 30.11.20 280 (З) 50000 м    ясно 
-18 -22.6 67 -22  1028.2  -0.2  751  326           
18 30.11.20 280 (З) н/о    н/о 
-16.9 -21.9 65 -22  1029  0.9  752  324           
21 30.11.20 290 (З) 50000 м    ясно 
-17.5 -22.3 66 -21  1029  0.1  751  325           
00 01.12.20 280 (З) 20000 м    ясно 
-17.6 -22.2 67 -23  1029.5  0.5  752  325  -20.9      равномерный
сухой снег
100% 
03 01.12.20 280 (З) 20000 м    ясно 
-12.8 -20.2 54 -17  1028.6  -0.3  752  319           
06 01.12.20 270 (З) 20000 м    ясно 
-10.9 -19.6 49 -16  1027.5  -0.9  751  317           
09 01.12.20 тихо ()   50000 м    ясно 
-17.1 -21.8 67 -17  1028.2  751  324           
12 01.12.20 тихо ()   50000 м    ясно 
-20 -23 77 -20  1028  -0.4  751  328    -10.5       
15 01.12.20 тихо ()   50000 м    ясно 
-23.9 -26.8 77 -24  1028.2  -0.2  750  333           
18 01.12.20 310 (СЗ) 50000 м    ясно 
-23.9 -27 76 -24  1027.8  -0.4  750  333           
21 01.12.20 280 (З) 50000 м    ясно 
-25.9 -29.2 74 -26  1027.1  -0.9  749  335           
00 02.12.20 320 (СЗ) 20000 м    10/0 верхняя 
[Ci fib]
-23.4 -26.6 75 -24  1026.6  -0.3  749  332  -26.5      равномерный
сухой снег
100% 
03 02.12.20 280 (З) 20000 м    3/0 верхняя 
[Ci fib]
-15.1 -20.9 61 -20  1024.9  -0.8  749  321           
06 02.12.20 260 (З) 20000 м    10/0 верхняя 
[Ci fib]
-11.7 -19.9 51 -15  1022.9  -1.6  747  316           
09 02.12.20 230 (ЮЗ) 50000 м    10/0 средняя, верхняя 
[Ac trans|Ci fib]
-15 -21 60 -15  1023.1  747  320           
12 02.12.20 тихо ()   50000 м    10/0 верхняя 
[Ci fib]
-18.4 -22 73 -18  1022.6  -0.9  747  324    -11.6       
15 02.12.20 310 (СЗ) 50000 м    10/0 верхняя 
[Ci fib]
-17.3 -20.8 74 -17  1021.5  -1  746  322           
18 02.12.20 300 (СЗ) 50000 м    10/0 верхняя 
[Ci fib]
-18 -21.5 74 -18  1020.8  -0.7  745  323           
21 02.12.20 310 (СЗ) 50000 м    10/0 верхняя 
[Ci fib]
-23.1 -26.2 76 -26  1020.8  -0.6  745  330           
Время (UTC), дата Ветер
(°,м/с) 
Видим.   Явления Облачность Т
(°С)
Тd
(°С)
f(%) Тe
(°С)
Pmin
(гПа)
dP
(гПа)
Po
(мм)
O2
(г/м3)
Тmin Tmax R s Состояние
почвы

Для получения пояснительной информации подведите курсор к названию столбца.

ПОГОДА Свободный - архив

Всё, что Вы хотите узнать о погоде Свободный - удобно и подробно!

Выберите нужную дату (начиная с 1 января 2019* года) и нажмите кнопку "Найти".
Будут отображены архивные сводки погоды по пункту Свободный, начиная с указанной даты.


Отображать данные в формате CSV (для использования в таблицах Excel)


Внимание! Наш архив погоды предназначен исключительно для личного некоммерческого использования в познавательных целях. Если Вам необходимы официальные справки о состоянии погоды (для производственных, юридических, коммерческих и т.п. целей), обращайтесь в органы Росгидромета.

*Примечание: данная дата относится к архиву по метеостанциям СССР (Россия, СНГ, Балтия).
Архив по метеостанциям Зарубежной Европы и Азии (кроме Китая) хранится 10 дней, по другим регионам земного шара (Китай, Африка, Америка, Австралия, Океания) - 1 день.

Свободный - район местоположения метеостанции


Название, широта, долгота, высота метеостанции:
Свободный 51.4°ш. 128.1°д. 197 м над ур. моря [Российская Федерация]

Дополнительная информация

В oтличие oт бoльшинства пoгoдных сайтoв мы публикуем пoдрoбную метеoинфoрмацию в детальнoм прoфессиoнальнoм фoрмате.

Характеристики температуры и влажнoсти вoздуха измеряются на высoте 2 м в тени вдали oт зданий и деревьев.
Скoрoсть ветра измеряется на высoте 10 м (на урoвне рoста челoвека скoрoсть ветра ниже в 1.5-2 раза). Если метеoстанция нахoдится в гoрoде или в лесу, тo скoрoсть ветра занижена на 2-4 м/с пo сравнению с oткрытым местoм. Скoрoсть ветра над акватoриями крупных рек и oзёр, а также на вершинах хoлмoв на 2-5 м/с выше, чем в oбычных услoвиях.
Атмoсфернoе давление в разных тoчках местнoсти мoжет значительнo oтличаться oт давления на метеoстанции, в зависимoсти oт услoвий рельефа (при пoдъёме на 10 м давление пoнижается примернo на 1 мм рт.ст.).